Location: Hopewell Observatory
(38.8698°N, 77.6988°W)
Time: 09:58:57
(UTC-05:00)

Daily predictions for brighter satellites

Satellite Brightness Start Highest point End
(mag) Time Altitude Azimuth Time Altitude Azimuth Time Altitude Azimuth
YAOGAN 1 2.5 17:39:21 10° SSE 17:43:39 74° ENE 17:47:58 10° N
Molniya-1 4.2 17:41:13 10° SW 17:43:42 63° NW 17:47:59 10° NNE
COSMO-SKYMED 1 3.3 17:40:13 10° NNE 17:44:09 33° E 17:48:03 10° SSE
Cosmos 990 Rocket 4.2 17:40:44 10° NNW 17:46:01 81° WSW 17:51:16 10° SSE
Cosmos 2058 4.2 17:44:01 10° SE 17:47:08 21° E 17:50:15 10° NE
SPOT 3 Rocket 3.5 17:42:04 10° SSE 17:47:12 82° ENE 17:52:23 10° NNW
Thor Agena Rocket 3.6 17:42:47 10° NNE 17:48:04 81° ESE 17:53:14 10° SSW
Cosmos 1125 Rocket 4.0 17:43:20 10° N 17:48:09 37° ENE 17:52:56 10° SE
Cosmos 2278 Rocket 2.8 17:43:20 10° N 17:48:29 34° ENE 17:53:36 10° SE
SMAP 3.3 17:46:28 10° S 17:51:08 80° W 17:55:48 10° NNW
BREEZE-M DEB (TANK) 3.6 17:47:01 10° WNW 17:51:17 66° SW 17:57:21 10° SE
USA 116 3.9 17:49:54 10° N 17:53:03 55° WNW 17:56:03 10° SSW
Cosmos 2228 Rocket 3.1 17:49:07 10° N 17:53:33 85° E 17:58:00 10° S
Elektron 3 4.3 17:51:40 10° NW 17:56:47 88° SW 17:59:49 10° SE
Cosmos 1908 4.0 17:54:38 10° NNW 17:58:28 57° W 18:02:16 10° S
Cosmos 1626 4.1 17:57:42 10° ESE 17:58:45 11° E 17:59:17 11° ENE
Cosmos 841 Rocket 3.9 17:55:01 10° SSW 18:00:16 69° WNW 18:05:32 10° NNE
Cosmos 1844 3.7 17:54:31 10° NNW 18:00:18 73° ENE 18:06:05 10° SSE
Cosmos 44 Rocket 3.4 17:55:33 10° SSW 18:00:42 88° ESE 18:05:47 10° NNE
Cosmos 1340 Rocket 3.9 17:58:11 10° SE 18:01:18 23° E 18:04:26 10° NE
Cosmos 1674 3.8 17:57:39 10° SSW 18:01:19 47° W 18:05:04 10° N
CENTAUR R/B 3.4 17:57:05 10° SW 18:02:57 49° NW 18:09:35 10° NNE
IDEFIX/ARIANE 42P 3.6 18:00:24 10° S 18:05:27 51° W 18:10:34 10° NNW
SL-14 R/B 3.4 18:03:48 10° S 18:07:35 50° E 18:11:25 10° NNE
Lacrosse 5 4.1 18:06:51 10° NW 18:09:14 13° NNW 18:11:38 10° N
COSMOS 2428 3.9 18:06:11 10° SW 18:11:34 42° WNW 18:16:59 10° N
Cosmos 2237 Rocket 2.2 18:06:40 10° S 18:12:13 66° ESE 18:17:48 10° NNE
Cosmos 1484 Rocket 2.7 18:08:25 10° SSE 18:12:18 83° E 18:16:18 10° N
SKYMED 3 4.5 18:09:56 10° NNE 18:14:17 74° E 18:18:36 10° S
CZ-2C R/B 4.0 18:09:57 10° SSW 18:14:39 40° W 18:19:15 10° NNW
Cosmos 1743 Rocket 4.4 18:10:18 10° SSW 18:14:40 54° W 18:19:05 10° N
Cosmos 1726 2.1 18:12:53 10° N 18:16:38 67° E 18:20:23 10° SSE
Milstar 3 4.2 18:11:21 10° WSW 18:17:18 31° S 18:23:26 10° SE
SL-16 R/B 3.0 18:12:55 10° SSE 18:17:44 30° ESE 18:21:40 14° NE
Cosmos 2151 2.9 18:13:50 10° S 18:18:01 71° E 18:22:12 10° NNE
Cosmos 1300 2.6 18:16:34 10° N 18:20:25 73° E 18:24:13 10° SSE
MSX 4.5 18:15:03 10° S 18:20:41 60° W 18:26:21 10° NNW
Cosmos 304 Rocket 4.3 18:20:09 10° S 18:24:34 38° ESE 18:28:10 15° NE
Cosmos 1515 Rocket 4.4 18:23:53 10° NNW 18:28:15 55° W 18:32:35 10° S
Cosmos 2297 4.3 18:23:30 10° N 18:28:41 34° ENE 18:33:51 10° SE
Hubble Space Telescope 3.8 18:29:09 10° SSW 18:29:22 10° SSW 18:29:36 10° SSW
Aureole 2 Rocket 2.6 18:26:47 10° S 18:30:19 60° ESE 18:33:24 15° NNE
SKYMED 2 3.9 18:27:59 10° N 18:32:19 69° WNW 18:36:37 10° SSW
Cosmos 1151 Rocket 3.2 18:29:17 10° NNW 18:33:33 72° W 18:37:48 10° S
Cosmos 1805 Rocket 3.8 18:29:35 10° SSE 18:33:50 45° E 18:38:06 10° NNE
BREEZE M DEB (TANK) 2.3 18:34:58 10° NW 18:37:00 29° NNE 18:37:00 29° NNE
Abrixas 2.3 18:36:07 10° SW 18:39:02 90° ESE 18:39:46 47° ENE
Lacrosse 5 rocket 1.6 18:35:34 10° NNW 18:39:11 40° NE 18:40:18 32° E
Cosmos 1844 Rocket 4.4 18:38:15 10° NW 18:43:22 36° WSW 18:48:25 10° S
Meteor 1-28 Rocket 3.5 18:41:24 10° N 18:45:05 65° WNW 18:48:46 10° SSW
Meteor 1-11 4.3 18:39:42 10° S 18:45:22 83° W 18:51:09 10° N
Cosmos 372 Rocket 4.1 18:50:26 10° NNW 18:55:32 76° WSW 19:00:36 10° S
Sich 1 3.2 18:51:23 10° SSE 18:55:41 51° E 18:57:08 36° NE
Cosmos 1633 Rocket 3.2 18:55:57 10° SSE 19:00:12 50° E 19:00:37 48° ENE
FengYun 1-2 T 4.3 18:56:00 10° SSE 19:01:26 55° ENE 19:06:49 10° N
FENGYUN 3A 3.6 18:59:57 10° SSE 19:05:08 55° ENE 19:10:23 10° N
SJ-6B 3.0 19:03:26 10° S 19:07:28 74° W 19:11:36 10° NNW
USA 215 3.2 19:01:55 14° SE 19:07:44 89° NE 19:14:21 10° NW
ALOS 2.2 19:03:34 10° SSE 19:08:08 59° ENE 19:12:44 10° N
OTV 4 2.2 19:07:18 10° W 19:09:45 27° SSW 19:09:45 27° SSW
Cosmos 2333 Rocket 3.9 19:09:58 10° WSW 19:14:52 30° WNW 19:19:49 10° N
Resurs 01 Rocket 2.0 19:17:34 47° NNE 19:17:34 47° NNE 19:20:53 10° N
Cosmos 1461 2.8 19:13:51 10° SSW 19:18:04 80° WNW 19:18:18 76° NNW
Cosmos 1703 4.2 19:15:46 10° SSW 19:19:32 47° W 19:21:52 21° NNW
Cosmos 1707 Rocket 3.8 19:19:19 10° NNW 19:23:36 66° W 19:27:54 10° S
Cosmos 2219 Rocket 4.4 19:20:22 10° W 19:24:27 20° NW 19:28:34 10° N
SL-19 R/B 4.4 19:22:25 10° SSE 19:28:26 78° WSW 19:34:08 10° NNW
Cosmos 2278 Rocket 3.9 19:27:29 10° NW 19:32:29 32° WSW 19:37:26 10° SSW
Cosmos 1666 Rocket 4.2 19:28:26 10° SSW 19:32:40 54° W 19:34:05 36° NNW
Cosmos 1626 3.4 19:30:10 10° SSW 19:33:41 39° W 19:34:02 38° WNW
Spot 2 Rocket 3.5 19:31:35 10° S 19:36:38 79° WSW 19:41:42 10° NNW
USA 229 DEB 3.5 19:42:23 10° SSW 19:49:13 79° ESE 19:49:29 77° E
USA 229 3.5 19:42:30 10° SSW 19:49:19 78° ESE 19:49:32 77° E
Aureole 1 Rocket 4.0 19:56:20 10° SSW 20:01:10 64° WNW 20:01:10 64° WNW
SL-16 R/B 3.5 19:56:30 10° SW 20:01:41 36° WNW 20:03:37 29° NNW
Lacrosse 5 rocket 4.2 20:15:12 10° WNW 20:16:06 14° W 20:16:06 14° W
